Torna al catalogo

ASTRA 1P

SES 24

AttivoComunicazioniGEO
NORAD 60086·PAYLOAD·🇱🇺 Luxembourg

Lanciato Jun 20, 2024 da Cape Canaveral Space Force Station

Loading…

TLE

AggiornatoSource: CelesTrak SupGP

Epoca: Sep 14, 2026, 23:44 UTC

1 60086C 24115A   26257.98958333  .00000086  00000+0  00000+0 0  2572
2 60086   0.0618 342.5986 0001867 243.3701 143.4448  1.00272335    18

Traccia ASTRA 1P in tempo reale con AllMySat

Download on the App Store